Location: Climax
(33.2048°N, 96.4497°W)
Time: 05:58:11
(UTC+00:00)

SL-4 R/B - Pass Details

Date: 11 July 2022
Orbit: 425 x 653 km, 51.6° (Epoch: 14 August)

Event Time Altitude Azimuth Distance (km) Brightness Sun altitude
Rises 02:10:23 0° 202° (SSW) 2,388 5.2 -6.8°
Reaches altitude 10° 02:12:40 10° 190° (S) 1,511 4.1 -7.2°
Maximum altitude 02:15:36 28° 130° (SE) 834 2.4 -7.7°
Drops below altitude 10° 02:18:32 10° 69° (ENE) 1,515 3.9 -8.2°
Sets 02:20:50 0° 58° (ENE) 2,395 5.0 -8.6°
